Omak, WA

6:56 PM PST on December 11, 2017 (GMT -0800)
Omak

Weather History for KOMK - August, 2013

Change the Weather History Date:

Saturday, August 31, 2013

  Actual Average Record
Temperature  
Mean Temperature 70 °F 68 °F  
Max Temperature 85 °F 84 °F 99 °F (1998)
Min Temperature 54 °F 53 °F 38 °F (2006)
Degree Days  
Heating Degree Days 0 1  
Month to date heating degree days 0 11  
Since 1 June heating degree days 67 100  
Since 1 July heating degree days 0 31  
Cooling Degree Days 5 5  
Month to date cooling degree days 250 245  
Year to date cooling degree days 686 606  
Since 1 June cooling degree days 663 583  
Growing Degree Days 20 (Base 50)    
Moisture  
Dew Point 45 °F    
Average Humidity 46    
Maximum Humidity 66    
Minimum Humidity 25    
Precipitation  
Precipitation 0.00 in 0.01 in 0.85 in (1999)
Month to date precipitation 1.32 0.49  
Year to date precipitation 7.42 9.28  
Sea Level Pressure  
Sea Level Pressure 30.01 in    
Wind  
Wind Speed 8 mph (NW)    
Max Wind Speed 16 mph    
Max Gust Speed 22 mph    
Visibility 10 miles    
Events      
T = Trace of Precipitation, MM = Missing Value Source: NWS Daily Summary

Daily Weather History Graph

Daily Weather History Graph

Search for Another Location

Airport or City:

Trip Planner

Search our weather history database for the weather conditions in past years. The results will help you decide how hot, cold, wet, or windy it might be!

Date:

Astronomy

Aug. 31, 2013 Rise Set
Actual Time 6:14 AM PDT 7:41 PM PDT
Civil Twilight 5:41 AM PDT 8:13 PM PDT
Nautical Twilight 5:02 AM PDT 8:52 PM PDT
Astronomical Twilight 4:19 AM PDT 9:35 PM PDT
Moon 1:33 AM PDT (8/31) 4:54 PM PDT (8/31)
Length of Visible Light 14h 31m
Length of Day
13h 26m
Waning Crescent, 20% of the Moon is Illuminated
Aug 31
Waning Crescent
Sep 5
New
Sep 12
First Quarter
Sep 19
Full
Sep 26
Last Quarter

Hourly Weather History & Observations

Time (PDT) Temp. Dew Point Humidity Pressure Visibility Wind Dir Wind Speed Gust Speed Precip Events Conditions
12:53 AM 61.0 °F 44.1 °F 54% 30.07 in 10.0 mi NW 12.7 mph - N/A   Partly Cloudy
1:53 AM 60.1 °F 44.1 °F 55% 30.08 in 10.0 mi NW 12.7 mph - N/A   Clear
2:53 AM 60.1 °F 45.0 °F 57% 30.08 in 10.0 mi NW 9.2 mph - N/A   Clear
3:53 AM 59.0 °F 44.1 °F 58% 30.08 in 10.0 mi North 10.4 mph - N/A   Clear
4:53 AM 57.9 °F 44.1 °F 60% 30.09 in 10.0 mi North 11.5 mph - N/A   Clear
5:53 AM 55.0 °F 44.1 °F 67% 30.10 in 10.0 mi North 9.2 mph - N/A   Clear
6:53 AM 55.9 °F 44.1 °F 64% 30.10 in 10.0 mi North 10.4 mph - N/A   Clear
7:53 AM 59.0 °F 45.0 °F 60% 30.11 in 10.0 mi North 11.5 mph - N/A   Clear
8:53 AM 64.0 °F 46.0 °F 52% 30.10 in 10.0 mi NNW 11.5 mph - N/A   Clear
9:53 AM 68.0 °F 46.0 °F 45% 30.09 in 10.0 mi North 13.8 mph - N/A   Clear
10:53 AM 73.0 °F 46.0 °F 38% 30.07 in 10.0 mi North 11.5 mph - N/A   Clear
11:53 AM 78.1 °F 45.0 °F 31% 30.04 in 10.0 mi North 9.2 mph - N/A   Clear
12:53 PM 78.1 °F 43.0 °F 29% 30.02 in 10.0 mi South 3.5 mph - N/A   Clear
1:53 PM 81.0 °F 44.1 °F 27% 30.00 in 10.0 mi Calm Calm - N/A   Clear
2:53 PM 84.0 °F 46.0 °F 26% 29.97 in 10.0 mi Variable 5.8 mph - N/A   Clear
3:53 PM 82.9 °F 45.0 °F 26% 29.95 in 10.0 mi Variable 3.5 mph - N/A   Clear
4:53 PM 84.9 °F 46.0 °F 26% 29.93 in 10.0 mi South 6.9 mph - N/A   Clear
5:53 PM 84.0 °F 45.0 °F 25% 29.91 in 10.0 mi South 4.6 mph - N/A   Clear
6:53 PM 82.0 °F 45.0 °F 27% 29.90 in 10.0 mi SW 6.9 mph - N/A   Clear
7:53 PM 69.1 °F 46.9 °F 45% 29.90 in 10.0 mi Calm Calm - N/A   Clear
8:53 PM 69.1 °F 46.0 °F 44% 29.90 in 10.0 mi WNW 8.1 mph - N/A   Clear
9:53 PM 70.0 °F 46.9 °F 44% 29.90 in 10.0 mi WNW 10.4 mph - N/A   Clear
10:53 PM 66.0 °F 46.0 °F 48% 29.91 in 10.0 mi WNW 6.9 mph - N/A   Clear
11:53 PM 60.1 °F 46.0 °F 60% 29.91 in 10.0 mi NNW 4.6 mph - N/A   Clear